Location: Harbor View
(36.2448°N, 86.5797°W)
Time: 08:35:25
(UTC+00:00)

CZ-4 R/B - Pass Details

Date: 29 October 2020
Orbit: 532 x 598 km, 97.7° (Epoch: 04 December)

Event Time Altitude Azimuth Distance (km) Brightness Sun altitude
Rises 23:45:15 0° 142° (SE) 2,703 4.6 -11.2°
Reaches altitude 10° 23:47:36 10° 130° (SE) 1,805 3.6 -11.6°
Maximum altitude 23:50:55 27° 72° (ENE) 1,049 2.2 -12.3°
Drops below altitude 10° 23:54:13 10° 13° (NNE) 1,796 3.7 -13.0°
Sets 23:56:32 0° 1° (N) 2,687 4.7 -13.4°
